Location: Lac de la Montagne noire
(46.1952°N, 74.2701°W)
Time: 10:54:57
(UTC-04:00)

N. Korean satellite - Visible Passes

Search period start: 19 October 2019 00:00
Search period end: 29 October 2019 00:00
Orbit: 455 x 508 km, 97.2° (Epoch: 19 October)

Date Brightness Start Highest point End Pass type
(mag) Time Alt. Az. Time Alt. Az. Time Alt. Az.
19 Oct 10.0 05:58:20 10° NE 06:00:39 16° E 06:02:59 10° SE visible
21 Oct 7.7 06:40:07 10° NNE 06:43:39 50° E 06:47:13 10° S visible
21 Oct 9.7 18:52:16 10° SW 18:54:50 20° W 18:57:27 10° NW visible
22 Oct 9.2 06:15:11 10° NE 06:18:16 25° E 06:21:21 10° SSE visible
22 Oct 8.2 18:26:09 10° S 18:29:23 39° W 18:32:41 10° NNW visible
23 Oct 10.2 05:50:53 10° ENE 05:52:46 14° E 05:54:39 10° ESE visible
24 Oct 10.2 19:10:53 10° WSW 19:12:25 12° W 19:13:59 10° WNW visible
25 Oct 8.2 06:32:19 10° NNE 06:35:48 41° E 06:39:18 10° S visible
25 Oct 9.2 18:44:03 10° SSW 18:46:54 24° W 18:49:49 10° NW visible
26 Oct 9.5 06:07:31 10° NE 06:10:22 21° E 06:13:14 10° SE visible
26 Oct 7.6 18:18:07 10° S 18:21:28 50° W 18:24:54 10° NNW visible
27 Oct 10.4 05:43:40 10° ENE 05:44:50 11° E 05:46:00 10° ESE visible
28 Oct 7.0 06:49:36 10° NNE 06:53:17 69° E 06:56:58 10° S visible
28 Oct 10.0 19:02:18 10° SW 19:04:27 15° W 19:06:38 10° NW visible
